Content
SEND FEEDBACK

Daily
Averages
Monthly
Summary
United States of America

YAMHILL, OREGON


Home > North America > United States > Oregon
Elevation: 720 feet     Latitude: 45 19N     Longitude: 123 21W

WEATHER
 
SELECT A DAY
Number of Records: 201,154;   Date Range: 1/1/95 - 8/28/14
 
SHARE

PRINT THIS DATA

[ ← Previous Day ]
WEATHER ALMANAC - JANUARY 31, 2013
[ Next Day → ]
[ °C ]   °F
Weather ElementAverageHighLow
Temperature44.4 °F51.1 °F (2:53 pm)39.9 °F (12:58 am)
Dewpoint42.6 °F46 °F (8:53 pm)37.9 °F (12:58 am)
Humidity93.8 %100 % (1:53 am)77 % (2:53 pm)
Barometer30.41 in30.46 in (1:22 am)30.34 in (5:53 pm)
Wind Speed1.1 mph5.8 mph (8:53 am)
Weather ElementAverage
Visibility4 mi
Wind DirectionENE (60.5 °)

Weather ElementTotal
Precipitation---
Heating Degree Days19.5 (Base 65)
Averaged from 38 records on January 31, 2013
WEATHER CONDITIONS BREAKOUT
WIND DIRECTION BREAKOUT
WEATHER BY HOUR - JANUARY 31, 2013
[ °C ]   °F
Local TimeTemperatureDewpointHumidityBarometerVisibilityWind DirectionWind SpeedGust SpeedPrecipitationEventsConditions
12:58 AM39.9 °F37.9 °F93 %30.45 in1.8 miCalmScattered Clouds
1:06 AM39.9 °F39.0 °F97 %30.45 in3.0 miCalmMostly Cloudy
1:22 AM39.9 °F39.0 °F97 %30.46 in2.5 miCalmOvercast
1:30 AM41.0 °F39.9 °F96 %30.46 in6.0 miCalmOvercast
1:53 AM41.0 °F41.0 °F100 %30.46 in5.0 miCalmMostly Cloudy
2:12 AM42.1 °F41.0 °F96 %30.45 in1.8 miCalmMostly Cloudy
2:21 AM39.9 °F39.9 °F100 %30.46 in0.5 miCalmFogFog
2:53 AM39.9 °F39.9 °F100 %30.45 in0.5 miCalmFogFog
3:04 AM39.9 °F39.9 °F100 %30.45 in1.0 miCalmOvercast
3:14 AM39.9 °F39.9 °F100 %30.44 in2.5 miCalmOvercast
3:19 AM39.9 °F39.9 °F100 %30.44 in0.8 miCalmOvercast
3:42 AM42.1 °F42.1 °F100 %30.44 in0.2 miCalmFogFog
3:53 AM42.1 °F42.1 °F100 %30.45 in0.2 miCalmFogFog
4:53 AM43.0 °F42.1 °F97 %30.43 in0.2 miSSE (150°)3.5 mphFogFog
5:53 AM43.0 °F43.0 °F100 %30.44 in0.2 miCalmFogFog
6:53 AM43.0 °F42.1 °F97 %30.43 in0.2 miCalmFogFog
7:53 AM43.0 °F42.1 °F97 %30.43 in0.2 miCalmFogFog
8:53 AM43.0 °F42.1 °F97 %30.44 in0.2 miNW (320°)5.8 mphFogFog
9:53 AM43.0 °F42.1 °F97 %30.44 in0.5 miWNW (290°)3.5 mphFogFog
10:38 AM43.0 °F43.0 °F100 %30.42 in1.2 miESE (120°)4.6 mphOvercast
10:53 AM44.1 °F43.0 °F96 %30.43 in2.0 miESE (110°)4.6 mphOvercast
11:26 AM44.1 °F43.0 °F96 %30.42 in2.0 miCalmOvercast
11:53 AM46.0 °F43.0 °F89 %30.41 in3.0 miCalm0.00 inRainLight Rain
12:53 PM48.0 °F44.1 °F86 %30.40 in4.0 miNNW (340°)4.6 mph0.00 inMostly Cloudy
1:03 PM48.9 °F44.1 °F83 %30.40 in4.0 miCalmHaze
1:53 PM50.0 °F44.1 °F80 %30.38 in4.0 miCalmHaze
2:53 PM51.1 °F44.1 °F77 %30.37 in5.0 miCalmHaze
3:53 PM50.0 °F45.0 °F83 %30.37 in10.0 miNNW (340°)4.6 mphOvercast
4:53 PM50.0 °F45.0 °F83 %30.35 in8.0 miCalmOvercast
5:53 PM48.9 °F45.0 °F86 %30.34 in6.0 miCalmOvercast
6:53 PM48.0 °F45.0 °F89 %30.34 in10.0 miNW (320°)3.5 mphOvercast
7:53 PM46.9 °F45.0 °F93 %30.34 in10.0 miNorth (10°)3.5 mphOvercast
8:02 PM48.0 °F45.0 °F89 %30.34 in10.0 miCalmOvercast
8:53 PM46.9 °F46.0 °F97 %30.35 in10.0 miWNW (300°)3.5 mphOvercast
10:12 PM46.9 °F45.0 °F93 %30.35 in10.0 miCalmOvercast
10:27 PM46.9 °F45.0 °F93 %30.35 in10.0 miCalmOvercast
10:53 PM46.9 °F45.0 °F93 %30.35 in9.0 miCalmOvercast
11:53 PM46.0 °F45.0 °F96 %30.36 in7.0 miCalmOvercast
Hourly data recorded from KHIO, located miles away from Yamhill, Oregon







STORIES FROM OUR PARTNERS